Weather History for KTMK - February, 2012

Change the Weather History Date:

Friday, February 24, 2012

  Actual Average (KMMV) Record (KMMV)
Temperature  
Mean Temperature 42 °F 44 °F  
Max Temperature 50 °F 52 °F 69 °F (1905)
Min Temperature 35 °F 35 °F 15 °F (1920)
Degree Days  
Heating Degree Days 22 21  
Month to date heating degree days 541  
Since 1 July heating degree days 3296  
Cooling Degree Days 0 0  
Month to date cooling degree days 0  
Year to date cooling degree days 0  
Moisture  
Dew Point 40 °F    
Average Humidity 89    
Maximum Humidity 100    
Minimum Humidity 62    
Precipitation  
Precipitation 0.33 in 0.14 in 2.00 in (1994)
Month to date precipitation 3.78  
Year to date precipitation 9.88  
Sea Level Pressure  
Sea Level Pressure 30.03 in    
Wind  
Wind Speed 4 mph (South)    
Max Wind Speed 20 mph    
Max Gust Speed 26 mph    
Visibility 9 miles    
Events Rain    
T = Trace of Precipitation, MM = Missing Value Source: NWS Daily Summary

Daily Weather History Graph

Daily Weather History Graph

Search for Another Location

Airport or City:

Trip Planner

Search our weather history database for the weather conditions in past years. The results will help you decide how hot, cold, wet, or windy it might be!

Date:

Astronomy

Feb. 24, 2012 Rise Set
Actual Time 8:02 AM MST 6:54 PM MST
Civil Twilight 7:32 AM MST 7:24 PM MST
Nautical Twilight 6:58 AM MST 7:59 PM MST
Astronomical Twilight 6:24 AM MST 8:33 PM MST
Moon 8:49 AM MST (2/24) 10:16 PM MST (2/24)
Length of Visible Light 11h 51m
Length of Day
10h 51m
Waxing Crescent, 8% of the Moon is Illuminated
Feb 24
Waxing Crescent
Feb 29
First Quarter
Mar 8
Full
Mar 14
Last Quarter
Mar 22
New

Hourly Weather History & Observations

Time (MST) Temp. Windchill Dew Point Humidity Pressure Visibility Wind Dir Wind Speed Gust Speed Precip Events Conditions
12:15 AM 42.8 °F - 39.2 °F 87% 30.33 in 7.0 mi Calm Calm - N/A   Overcast
12:35 AM 42.8 °F 41.1 °F 39.2 °F 87% 30.32 in 10.0 mi SE 3.5 mph - N/A   Overcast
12:55 AM 42.8 °F 40.1 °F 39.2 °F 87% 30.32 in 10.0 mi SSE 4.6 mph - N/A   Overcast
1:15 AM 42.8 °F 40.1 °F 39.2 °F 87% 30.31 in 10.0 mi SE 4.6 mph - N/A   Overcast
1:35 AM 42.8 °F - 39.2 °F 87% 30.30 in 10.0 mi Calm Calm - N/A   Overcast
1:55 AM 42.8 °F - 39.2 °F 87% 30.30 in 10.0 mi Calm Calm - N/A   Overcast
2:15 AM 42.8 °F - 39.2 °F 87% 30.30 in 10.0 mi Calm Calm - N/A   Overcast
2:35 AM 42.8 °F - 39.2 °F 87% 30.30 in 10.0 mi Calm Calm - N/A   Overcast
2:55 AM 42.8 °F - 39.2 °F 87% 30.29 in 10.0 mi Calm Calm - N/A   Overcast
3:15 AM 42.8 °F - 39.2 °F 87% 30.29 in 10.0 mi Calm Calm - N/A   Overcast
3:35 AM 42.8 °F 40.1 °F 39.2 °F 87% 30.27 in 10.0 mi SE 4.6 mph - N/A   Overcast
3:55 AM 42.8 °F - 39.2 °F 87% 30.26 in 10.0 mi Calm Calm - N/A   Overcast
4:15 AM 42.8 °F - 39.2 °F 87% 30.25 in 10.0 mi Calm Calm - N/A   Overcast
4:35 AM 42.8 °F - 39.2 °F 87% 30.24 in 10.0 mi Calm Calm - N/A   Overcast
5:15 AM 41.0 °F - 39.2 °F 93% 30.23 in 10.0 mi Calm Calm - N/A   Overcast
5:35 AM 41.0 °F - 39.2 °F 93% 30.22 in 10.0 mi Calm Calm - N/A   Scattered Clouds
5:55 AM 39.2 °F 37.0 °F 37.4 °F 93% 30.21 in 10.0 mi SSE 3.5 mph - N/A   Clear
6:15 AM 37.4 °F 33.8 °F 37.4 °F 100% 30.20 in 7.0 mi SSE 4.6 mph - N/A   Clear
6:35 AM 37.4 °F 34.9 °F 35.6 °F 93% 30.18 in 10.0 mi SE 3.5 mph - N/A   Clear
6:55 AM 37.4 °F 34.9 °F 35.6 °F 93% 30.18 in 7.0 mi South 3.5 mph - N/A   Clear
7:15 AM 35.6 °F 32.8 °F 35.6 °F 100% 30.17 in 7.0 mi SE 3.5 mph - N/A   Clear
7:55 AM 35.6 °F 31.7 °F 35.6 °F 100% 30.16 in 10.0 mi SE 4.6 mph - N/A   Clear
8:15 AM 35.6 °F 30.7 °F 35.6 °F 100% 30.15 in 10.0 mi SE 5.8 mph - N/A   Clear
8:35 AM 35.6 °F 30.7 °F 35.6 °F 100% 30.13 in 10.0 mi ESE 5.8 mph - N/A   Clear
8:55 AM 37.4 °F - 37.4 °F 100% 30.11 in 10.0 mi Calm Calm - N/A   Clear
9:15 AM 37.4 °F - 37.4 °F 100% 30.11 in 10.0 mi Calm Calm - N/A   Clear
9:35 AM 39.2 °F - 39.2 °F 100% 30.09 in 10.0 mi Calm Calm - N/A   Clear
9:55 AM 41.0 °F - 39.2 °F 93% 30.07 in 10.0 mi Calm Calm - N/A   Clear
10:15 AM 41.0 °F - 39.2 °F 93% 30.06 in 10.0 mi Calm Calm - N/A   Clear
10:35 AM 44.6 °F - 39.2 °F 81% 30.05 in 10.0 mi Calm Calm - N/A   Clear
11:15 AM 46.4 °F - 37.4 °F 71% 30.03 in 10.0 mi Calm Calm - N/A   Scattered Clouds
1:35 PM 50.0 °F - 37.4 °F 62% 29.95 in 10.0 mi ESE 4.6 mph - N/A   Overcast
4:15 PM 48.2 °F - 44.6 °F 87% 29.83 in 3.0 mi South 10.4 mph - 0.02 in Rain Rain
4:35 PM 46.4 °F 40.1 °F 44.6 °F 93% 29.82 in 5.0 mi South 15.0 mph 19.6 mph 0.05 in Rain Light Rain
4:55 PM 46.4 °F 41.5 °F 44.6 °F 93% 29.81 in 3.0 mi South 10.4 mph - 0.07 in Rain Rain
5:15 PM 48.2 °F - 44.6 °F 87% 29.81 in 5.0 mi South 8.1 mph - 0.04 in Rain Rain
5:35 PM 48.2 °F - 44.6 °F 87% 29.79 in 4.0 mi Calm Calm - 0.09 in Rain Rain
5:55 PM 48.2 °F - 46.4 °F 93% 29.78 in 5.0 mi South 16.1 mph 21.9 mph 0.14 in Rain Rain
6:15 PM 50.0 °F - 46.4 °F 87% 29.77 in 10.0 mi SSW 15.0 mph 25.3 mph 0.02 in Rain Light Rain
6:35 PM 48.2 °F - 46.4 °F 93% 29.76 in 5.0 mi SSW 13.8 mph 20.7 mph 0.02 in Rain Light Rain
6:55 PM 48.2 °F - 44.6 °F 87% 29.76 in 7.0 mi South 13.8 mph - 0.03 in Rain Light Rain
7:15 PM 48.2 °F - 44.6 °F 87% 29.75 in 5.0 mi SSW 11.5 mph - N/A Rain Light Rain
7:35 PM 48.2 °F - 44.6 °F 87% 29.75 in 5.0 mi SSW 9.2 mph 16.1 mph 0.01 in Rain Rain
7:55 PM 48.2 °F - 44.6 °F 87% 29.74 in 10.0 mi South 9.2 mph - 0.02 in Rain Rain
8:15 PM 48.2 °F - 44.6 °F 87% 29.75 in 5.0 mi SW 18.4 mph 24.2 mph 0.03 in Rain Rain
8:35 PM 46.4 °F 39.0 °F 44.6 °F 93% 29.75 in 7.0 mi SW 19.6 mph 24.2 mph 0.07 in Rain Rain
8:55 PM 46.4 °F 41.5 °F 42.8 °F 87% 29.76 in 7.0 mi SW 10.4 mph 19.6 mph 0.07 in   Overcast
9:15 PM 46.4 °F 42.4 °F 41.0 °F 81% 29.77 in 10.0 mi SW 8.1 mph - N/A   Overcast
9:35 PM 46.4 °F 41.1 °F 41.0 °F 81% 29.77 in 10.0 mi SW 11.5 mph 17.3 mph N/A   Overcast
9:55 PM 46.4 °F 40.7 °F 41.0 °F 81% 29.77 in 10.0 mi SW 12.7 mph 21.9 mph N/A   Overcast
10:15 PM 46.4 °F 40.1 °F 41.0 °F 81% 29.77 in 10.0 mi SW 15.0 mph 21.9 mph N/A   Overcast
10:35 PM 46.4 °F 40.1 °F 41.0 °F 81% 29.78 in 10.0 mi SW 15.0 mph 26.5 mph N/A   Overcast
10:55 PM 46.4 °F 39.8 °F 42.8 °F 87% 29.78 in 10.0 mi WSW 16.1 mph 25.3 mph N/A   Overcast
11:15 PM 46.4 °F 39.0 °F 41.0 °F 81% 29.79 in 5.0 mi West 19.6 mph 36.8 mph N/A Rain Light Rain
11:35 PM 44.6 °F 36.4 °F 39.2 °F 81% 29.82 in 10.0 mi West 20.7 mph 40.3 mph 0.01 in   Overcast
11:55 PM 44.6 °F 37.2 °F 39.2 °F 81% 29.84 in 5.0 mi West 17.3 mph 29.9 mph 0.02 in Rain Light Rain